User: anonymous   Login
Location: Killam
(52.7910°N, 111.8608°W)
Time: 17:46:40
(UTC+00:00)
Language:

SEEDS - Orbit

View from above orbital plane
View from above orbital plane
View from above satellite
View from above satellite

Ground track
Ground track

The orbit is defined by the following mean orbital elements,

1 32791U          26066.49972066 +.00000000 +00000-0 +10796-2 0 00003
2 32791  97.7523  59.8387 0001763   7.0409 353.0854 15.28968125    09
Epoch (UTC): 07 March 2026 11:59:35
Eccentricity: 0.0001763
inclination: 97.7523°
perigee height: 478 km
apogee height: 480 km
right ascension of ascending node: 59.8387°
argument of perigee: 7.0409°
revolutions per day: 15.28968125
mean anomaly at epoch: 353.0854°

The dashed part of the orbit path shows where the satellite is in the earth's shadow,  

DLR